Starlink 5670

operational
NORAD ID: 55341 Int'l Des: 2023-013 Owner: SPXS Country: US Constellation: starlink
LEOCIRCULAR

About Starlink 5670

Description loading...

Live Position

Loading 3D Globe...

Upcoming Passes

Altitude History

Altitude vs Time

uPlot chart will show altitude changes over time

Two-Line Element Set

1 55341U 23013L 25350.57098338 -.00000060 00000-0 10657-4 0 9995
2 55341 43.0066 32.1963 0001496 268.6033 91.4638 15.02544952159206
Epoch: Dec 16, 2025 • Age: 17 hours

Current Status

Altitude 567.9 km
Velocity 7.58 km/s
Sub-Earth Point -34.21°S, 68.17°E
Launch Date Jan 26, 2023
Age 2.8 years
Type internet

Technical Details

Classification Payload
Mass 305.00 kg
Dry Mass 290.00 kg
Total Mass 305.00 kg
Length 0.20 m
Diameter 2.80 m
Span 9.00 m
Shape Box + pan
Manufacturer SPXS
Bus Type Starlink
Phase Status In Orbit
Owner/State SPXS/US

Large Constellations

Loading constellations...